Location: Moscow
(38.8570°N, 84.2291°W)
Time: 16:33:03
(UTC+00:00)

AQUARIUS - Pass Details

Date: 15 November 2025
Orbit: 634 x 636 km, 98.0° (Epoch: 06 December)

Event Time Altitude Azimuth Distance (km) Brightness Sun altitude
Rises 23:03:10 0° 153° (SSE) 2,920 7.4 -8.2°
Reaches altitude 10° 23:05:24 10° 147° (SSE) 2,015 6.5 -8.6°
Maximum altitude 23:09:38 49° 73° (ENE) 824 4.3 -9.4°
Drops below altitude 10° 23:13:53 10° 359° (N) 2,028 6.6 -10.2°
Sets 23:16:08 0° 354° (N) 2,940 7.4 -10.6°
